Погода в Кемчуге

Погода в Кемчуге : погода сейчас, прогноз погоды и архив. Всё, что Вы хотите узнать о погоде в Кемчуге!

Хотите узнать прогноз погоды в Кемчуге? Тогда Вам сюда: Погода в Кемчуге

Поиск расширенной информации на нашем сайте:

Другие новости

Новости СМИ2

Главная страница сайта

Новости сайта

03.07.2017

Напоминаем, что на нашем специализированном сайте Метеоцентр.Азия вы можете получить высокодетализированные автоматические прогнозы погоды по пунктам России, СНГ и мира в авиационном формате (включающие направление и скорость ветра, видимость, явления погоды, количество и форму облачности, нижнюю и верхнюю границу облачности).

Рекомендуем: пластиковая упаковка по низкой цене

Погода в Кемчуге - сегодня

Время (UTC), дата Ветер
(°,м/с) 
Видим.   Явления Облачность Т
(°С)
Тd
(°С)
f(%) Тe
(°С)
Pmin
(гПа)
dP
(гПа)
Po
(мм)
O2
(г/м3)
Тmin Tmax R s Состояние
почвы
03 18.06.18 120 (ЮВ) 20000 м    3/0 верхняя 
[Ci sp]
+25.3 +11.8 43 +30  1007.8  -1.1  728  266           
06 18.06.18 070 (В) 20000 м    3/0 верхняя 
[Cs]
+26.4 +11.8 40 +31  1006.4  -1.2  727  265           
09 18.06.18 070 (В) 4{10}  20000 м    8/0 верхняя 
[Ci sp]
+26.6 +9.6 34 +28  1004.9  -1.5  726  265           
12 18.06.18 080 (В) 4{10}  20000 м    8/0 верхняя 
[Cs]
+26 +8.2 32 +26  1003.8  -1.1  725  265    +27       
15 18.06.18 080 (В) 20000 м    6/0 верхняя 
[Cs]
+22.1 +8.9 43 +23  1003.6  -0.7  725  268           
18 18.06.18 080 (В) 50000 м    6/0 верхняя 
[Ci sp]
+20 +8.6 48 +20  1001.7  -2.1  723  270           
21 18.06.18 060 (СВ) 20000 м    8/3 600 м кучево-дожд., верхняя 
[Cb cap|Ci sp]
+16.2 +9.3 64 +19  1001.2  -0.9  722  273           
00 19.06.18 050 (СВ) 20000 м    9/9 600 м кучево-дожд. 
[Cb cap]
+17 +11.3 69 +22  999.7  -1.4  721  271  +15.2        влажная 
03 19.06.18 200 (Ю) 20000 м    8/0 средняя, верхняя 
[Ac trans|Cs]
+24.3 +14.4 54 +33  998.9  0.2  721  264           
06 19.06.18 170 (Ю) 20000 м    8/4 600 м кучево-дожд., средняя, верхняя 
[Cb cap|Ac trans|Cs]
+25.7 +14 48 +34  998.9  0.2  722  263           
09 19.06.18 330 (СЗ) 20000 м    4/3 600 м кучево-дожд., верхняя 
[Cb calv|Ci sp]
+30.9 +12.8 33 +37  997.7  -0.5  724  260           
12 19.06.18 070 (В) 20000 м    6/4 600 м кучево-дожд., верхняя 
[Cb cap|Cs]
+27.8 +15.3 47 +38  997.8  -0.3  721  260    +31.2       
15 19.06.18 110 (В) 20000 м    3/0 верхняя 
[Ci]
+23.5 +16.1 63 +35  998.2  -0.1  721  264           
18 19.06.18 210 (ЮЗ) 50000 м    5/3 600 м кучево-дожд., верхняя 
[Cb cap|Cs]
+19.3 +14.5 74 +30  999  0.2  721  268           
21 19.06.18 210 (ЮЗ) 20000 м    8/0 кучево-дожд., верхняя 
[Cb cap|Ci fib]
+16 +15 94 +27  1000.6  1.2  722  272           
00 20.06.18 240 (ЮЗ) 20000 м    8/3 600 м кучево-дожд., верхняя 
[Cb cap|Ci fib]
+17.6 +13.4 76 +25  1004.2  3.6  725  272  +15.6        сухая 
03 20.06.18 260 (З) 5{12}  20000 м    8/5 600 м кучево-дожд., верхняя 
[Cb calv|Ci sp]
+20.6 +11.6 56 +25  1004.9  725  270           
06 20.06.18 230 (ЮЗ) 5{11}  20000 м    6/4 600 м кучево-дожд., верхняя 
[Cb calv|Ci sp]
+22.5 +9 42 +23  1005.4  0.7  726  269           
12 20.06.18 280 (З) 3{11}  20000 м    4/3 1000 м верхняя 
[Cu hum|Ci fib]
+23.6 +8.7 39 +24  1004.6  -0.3  725  268    +24.1       
15 20.06.18 100 (В) 20000 м    5/3 600 м кучево-дожд., верхняя 
[Cb cap|Ci fib]
+19 +9.6 54 +22  1005.1  -0.2  725  271           
18 20.06.18 090 (В) 50000 м    10/10 600 м кучево-дожд. 
[Cb cap]
+14.1 +10.9 81 +18  1005.5  -0.1  725  276           
21 20.06.18 160 (Ю) 4000 м  слаб. ливневой дождь  10/10 600 м кучево-дожд. 
[Cb cap]
+13.8 +12.1 89 +20  1007.2  1.5  726  276           
00 21.06.18 150 (ЮВ) 20000 м  {ливн. осадки}  8/6 600 м кучево-дожд., верхняя 
[Cb cap|Ci sp]
+14.7 +13 90 +21  1007.2  0.2  726  275  +12.5    0.8    влажная 
03 21.06.18 200 (Ю) 20000 м    5/3 1000 м верхняя 
[Cu med, cong|Ci fib]
+20 +12.8 63 +26  1006.5  0.1  727  270           
06 21.06.18 200 (Ю) 20000 м    8/8 1000 м 
[Cu med, cong]
+23 +11.9 50 +27  1005  -1.1  726  267           
Время (UTC), дата Ветер
(°,м/с) 
Видим.   Явления Облачность Т
(°С)
Тd
(°С)
f(%) Тe
(°С)
Pmin
(гПа)
dP
(гПа)
Po
(мм)
O2
(г/м3)
Тmin Tmax R s Состояние
почвы

Для получения пояснительной информации подведите курсор к названию столбца.

ПОГОДА в Кемчуге - архив

Всё, что Вы хотите узнать о погоде в Кемчуге - удобно и подробно!

Выберите нужную дату (начиная с 1 января 2015* года) и нажмите кнопку "Найти".
Будут отображены архивные сводки погоды по пункту Кемчуг, начиная с указанной даты.


Отображать данные в формате CSV (для использования в таблицах Excel)


Внимание! Наш архив погоды предназначен исключительно для личного некоммерческого использования в познавательных целях. Если Вам необходимы официальные справки о состоянии погоды (для производственных, юридических, коммерческих и т.п. целей), обращайтесь в органы Росгидромета.

*Примечание: данная дата относится к архиву по метеостанциям СССР (Россия, СНГ, Балтия).
Архив по метеостанциям Зарубежной Европы и Азии (кроме Китая) хранится 10 дней, по другим регионам земного шара (Китай, Африка, Америка, Австралия, Океания) - 1 день.

Кемчуг - район местоположения метеостанции


Название, широта, долгота, высота метеостанции:
Кемчуг 56.1°ш. 91.7°д. 332 м над ур. моря [Российская Федерация]

Дополнительная информация

В oтличие oт бoльшинства пoгoдных сайтoв мы публикуем пoдрoбную метеoинфoрмацию в детальнoм прoфессиoнальнoм фoрмате.

Характеристики температуры и влажнoсти вoздуха измеряются на высoте 2 м в тени вдали oт зданий и деревьев.
Скoрoсть ветра измеряется на высoте 10 м (на урoвне рoста челoвека скoрoсть ветра ниже в 1.5-2 раза). Если метеoстанция нахoдится в гoрoде или в лесу, тo скoрoсть ветра занижена на 2-4 м/с пo сравнению с oткрытым местoм. Скoрoсть ветра над акватoриями крупных рек и oзёр, а также на вершинах хoлмoв на 2-5 м/с выше, чем в oбычных услoвиях.
Атмoсфернoе давление в разных тoчках местнoсти мoжет значительнo oтличаться oт давления на метеoстанции, в зависимoсти oт услoвий рельефа (при пoдъёме на 10 м давление пoнижается примернo на 1 мм рт.ст.).